Horseshoe Bay, TX

8:48 PM MDT on April 25, 2017 (GMT -0600)
Horseshoe Bay

Weather History for KDZB - February, 2014

Change the Weather History Date:

Wednesday, February 26, 2014

  Actual Average (KBMQ) Record (KBMQ)
Temperature  
Mean Temperature 38 °F -  
Max Temperature 46 °F 60 °F 84 °F (2009)
Min Temperature 29 °F 41 °F 25 °F (2002)
Degree Days  
Heating Degree Days 28    
Moisture  
Dew Point 29 °F    
Average Humidity 73    
Maximum Humidity 100    
Minimum Humidity 47    
Precipitation  
Precipitation 0.00 in - - ()
Sea Level Pressure  
Sea Level Pressure 30.18 in    
Wind  
Wind Speed 9 mph (North)    
Max Wind Speed 17 mph    
Max Gust Speed 24 mph    
Visibility 9 miles    
Events Rain    
Averages and records for this station are not official NWS values.
T = Trace of Precipitation, MM = Missing Value Source: NWS Daily Summary

Daily Weather History Graph

Daily Weather History Graph

Search for Another Location

Airport or City:

Trip Planner

Search our weather history database for the weather conditions in past years. The results will help you decide how hot, cold, wet, or windy it might be!

Date:

Astronomy

Feb. 26, 2014 Rise Set
Actual Time 6:02 AM MST 5:30 PM MST
Civil Twilight 5:38 AM MST 5:54 PM MST
Nautical Twilight 5:10 AM MST 6:22 PM MST
Astronomical Twilight 4:42 AM MST 6:50 PM MST
Moon 3:41 AM MST 2:53 PM MST
Length of Visible Light 12h 15m
Length of Day
11h 27m
Waning Crescent, 9% of the Moon is Illuminated
Feb 26
Waning Crescent
Mar 1
New
Mar 8
First Quarter
Mar 16
Full
Mar 23
Last Quarter

Hourly Weather History & Observations

Time (MST) Temp. Windchill Dew Point Humidity Pressure Visibility Wind Dir Wind Speed Gust Speed Precip Events Conditions
12:15 AM 46.2 °F 42.2 °F 46.2 °F 100% 30.08 in 5.0 mi North 8.1 mph - N/A   Overcast
12:35 AM 45.9 °F 40.4 °F 45.9 °F 100% 30.08 in 4.0 mi North 11.5 mph 17.3 mph N/A   Overcast
12:55 AM 45.5 °F 40.3 °F 45.5 °F 100% 30.10 in 4.0 mi North 10.4 mph 20.7 mph N/A   Overcast
1:15 AM 45.0 °F 39.3 °F 45.0 °F 100% 30.10 in 2.5 mi North 11.5 mph 20.7 mph N/A Rain Light Rain
1:35 AM 44.6 °F 39.2 °F 44.6 °F 100% 30.10 in 5.0 mi North 10.4 mph 18.4 mph N/A   Overcast
1:55 AM 43.2 °F 37.9 °F 43.2 °F 100% 30.11 in 5.0 mi North 9.2 mph 17.3 mph N/A   Light Drizzle
2:15 AM 42.8 °F 36.6 °F 42.8 °F 100% 30.12 in 7.0 mi North 11.5 mph 18.4 mph N/A   Overcast
2:35 AM 41.9 °F 36.3 °F 41.9 °F 100% 30.13 in 5.0 mi North 9.2 mph 19.6 mph N/A   Overcast
2:55 AM 41.0 °F 34.3 °F 41.0 °F 100% 30.15 in 5.0 mi North 11.5 mph 24.2 mph N/A   Overcast
3:15 AM 40.3 °F 31.6 °F 39.7 °F 98% 30.15 in 7.0 mi North 17.3 mph 24.2 mph N/A   Overcast
3:35 AM 39.2 °F 35.0 °F 38.3 °F 97% 30.16 in 7.0 mi North 5.8 mph 20.7 mph N/A   Overcast
3:55 AM 38.7 °F 31.4 °F 38.5 °F 99% 30.16 in 7.0 mi North 11.5 mph 20.7 mph N/A   Overcast
4:15 AM 38.8 °F 31.2 °F 37.6 °F 95% 30.16 in 7.0 mi North 12.7 mph 19.6 mph N/A   Light Drizzle
4:35 AM 39.0 °F 31.8 °F 36.9 °F 92% 30.16 in 7.0 mi North 11.5 mph 18.4 mph N/A   Overcast
4:55 AM 39.0 °F 32.3 °F 35.1 °F 86% 30.17 in 10.0 mi North 10.4 mph 21.9 mph N/A   Overcast
5:15 AM 38.8 °F 31.2 °F 34.3 °F 84% 30.18 in 10.0 mi North 12.7 mph 21.9 mph N/A   Overcast
5:35 AM 38.7 °F 33.6 °F 33.6 °F 82% 30.18 in 10.0 mi North 6.9 mph - N/A   Overcast
5:55 AM 38.7 °F 31.4 °F 32.0 °F 77% 30.20 in 10.0 mi North 11.5 mph 18.4 mph N/A   Overcast
6:15 AM 38.5 °F 31.6 °F 31.1 °F 75% 30.20 in 10.0 mi NNE 10.4 mph 18.4 mph N/A   Overcast
6:35 AM 38.3 °F 32.5 °F 30.0 °F 72% 30.21 in 10.0 mi North 8.1 mph 23.0 mph N/A   Overcast
6:55 AM 37.8 °F 29.8 °F 28.9 °F 71% 30.23 in 10.0 mi North 12.7 mph 19.6 mph N/A   Overcast
7:15 AM 37.9 °F 30.5 °F 29.1 °F 71% 30.23 in 10.0 mi North 11.5 mph 17.3 mph N/A   Overcast
7:35 AM 37.8 °F 29.4 °F 27.3 °F 66% 30.25 in 10.0 mi North 13.8 mph 24.2 mph N/A   Overcast
7:55 AM 37.0 °F 31.0 °F 26.4 °F 65% 30.26 in 10.0 mi North 8.1 mph 24.2 mph N/A   Light Drizzle
8:15 AM 36.0 °F 29.6 °F 28.8 °F 75% 30.26 in 5.0 mi North 8.1 mph - N/A Rain Light Rain
8:35 AM 35.6 °F 29.9 °F 30.0 °F 80% 30.25 in 5.0 mi North 6.9 mph - N/A Rain Light Rain
8:55 AM 35.4 °F 26.8 °F 30.0 °F 81% 30.24 in 7.0 mi NNE 12.7 mph 19.6 mph N/A Rain Rain
9:15 AM 35.6 °F 31.7 °F 28.8 °F 76% 30.24 in 10.0 mi North 4.6 mph 17.3 mph N/A   Light Drizzle
9:35 AM 36.1 °F 28.7 °F 26.4 °F 68% 30.25 in 10.0 mi North 10.4 mph 18.4 mph N/A   Mostly Cloudy
9:55 AM 36.0 °F 27.5 °F 25.3 °F 65% 30.25 in 10.0 mi North 12.7 mph 18.4 mph N/A   Scattered Clouds
10:15 AM 36.5 °F 30.3 °F 25.2 °F 64% 30.24 in 10.0 mi North 8.1 mph - N/A   Light Drizzle
10:40 AM 37.4 °F 28.5 °F 26.1 °F 64% 30.25 in 10.0 mi North 15.0 mph 18.4 mph N/A   Scattered Clouds
10:55 AM 37.4 °F 30.8 °F 26.1 °F 64% 30.26 in 10.0 mi North 9.2 mph 18.4 mph N/A Rain Light Rain
11:15 AM 37.2 °F 29.1 °F 25.9 °F 64% 30.24 in 10.0 mi NNW 12.7 mph - N/A   Light Drizzle
11:35 AM 36.1 °F 27.3 °F 26.6 °F 68% 30.24 in 10.0 mi NNW 13.8 mph 19.6 mph N/A Rain Rain
11:55 AM 35.6 °F 26.2 °F 26.2 °F 69% 30.22 in 10.0 mi North 15.0 mph 19.6 mph N/A Rain Light Rain
12:15 PM 35.8 °F 28.8 °F 26.2 °F 68% 30.21 in 10.0 mi North 9.2 mph 18.4 mph N/A Rain Light Rain
12:35 PM 36.7 °F 29.4 °F 25.2 °F 63% 30.20 in 10.0 mi North 10.4 mph 17.3 mph N/A   Clear
12:55 PM 37.0 °F 29.3 °F 24.4 °F 60% 30.17 in 10.0 mi North 11.5 mph 18.4 mph N/A   Light Drizzle
1:15 PM 37.8 °F 29.4 °F 24.4 °F 59% 30.16 in 10.0 mi North 13.8 mph 19.6 mph N/A   Clear
1:35 PM 38.7 °F 31.8 °F 23.5 °F 55% 30.16 in 10.0 mi North 10.4 mph 16.1 mph N/A   Clear
1:55 PM 38.5 °F 34.1 °F 22.6 °F 53% 30.16 in 10.0 mi North 5.8 mph 17.3 mph N/A   Clear
2:15 PM 39.0 °F 34.0 °F 22.6 °F 52% 30.15 in 10.0 mi North 6.9 mph 17.3 mph N/A   Clear
2:35 PM 39.7 °F 35.6 °F 22.5 °F 50% 30.15 in 10.0 mi North 5.8 mph - N/A   Clear
2:55 PM 40.5 °F 35.8 °F 22.6 °F 49% 30.15 in 10.0 mi NNW 6.9 mph - N/A   Clear
3:15 PM 40.8 °F 35.6 °F 22.6 °F 48% 30.14 in 10.0 mi NNW 8.1 mph - N/A   Clear
3:35 PM 40.6 °F 34.3 °F 22.3 °F 48% 30.14 in 10.0 mi NNW 10.4 mph - N/A   Clear
3:55 PM 41.0 °F 37.1 °F 21.9 °F 47% 30.14 in 10.0 mi North 5.8 mph - N/A   Clear
4:20 PM 41.0 °F 38.0 °F 22.1 °F 47% 30.14 in 10.0 mi North 4.6 mph - N/A   Clear
4:35 PM 41.0 °F 38.0 °F 22.6 °F 48% 30.14 in 10.0 mi North 4.6 mph - N/A   Clear
4:55 PM 41.0 °F 35.8 °F 22.5 °F 48% 30.14 in 10.0 mi North 8.1 mph - N/A   Clear
5:15 PM 40.3 °F 37.1 °F 21.2 °F 47% 30.14 in 10.0 mi North 4.6 mph - N/A   Clear
5:35 PM 39.4 °F 36.1 °F 21.6 °F 49% 30.15 in 10.0 mi North 4.6 mph - N/A   Clear
5:55 PM 38.5 °F 35.0 °F 21.4 °F 50% 30.16 in 10.0 mi North 4.6 mph - N/A   Clear
6:15 PM 37.8 °F 35.3 °F 21.7 °F 53% 30.15 in 10.0 mi North 3.5 mph - N/A   Clear
6:35 PM 36.5 °F - 22.8 °F 58% 30.16 in 10.0 mi Calm Calm - N/A   Clear
6:55 PM 36.0 °F - 22.5 °F 58% 30.17 in 10.0 mi Calm Calm - N/A   Clear
7:15 PM 34.9 °F - 22.8 °F 61% 30.17 in 10.0 mi Calm Calm - N/A   Clear
7:35 PM 33.1 °F - 23.9 °F 69% 30.18 in 10.0 mi Calm Calm - N/A   Clear
7:55 PM 32.0 °F - 25.5 °F 77% 30.18 in 10.0 mi Calm Calm - N/A   Clear
8:15 PM 31.8 °F - 25.7 °F 78% 30.17 in 10.0 mi Calm Calm - N/A   Clear
8:35 PM 31.1 °F - 26.2 °F 82% 30.18 in 10.0 mi Calm Calm - N/A   Clear
8:55 PM 31.1 °F 27.7 °F 26.2 °F 82% 30.18 in 10.0 mi SSW 3.5 mph - N/A   Clear
9:15 PM 31.1 °F - 26.4 °F 83% 30.18 in 10.0 mi Calm Calm - N/A   Clear
9:35 PM 30.7 °F - 26.2 °F 83% 30.18 in 10.0 mi Calm Calm - N/A   Clear
9:55 PM 30.2 °F - 26.2 °F 85% 30.18 in 10.0 mi Calm Calm - N/A   Clear
10:15 PM 29.8 °F - 26.2 °F 86% 30.18 in 10.0 mi Calm Calm - N/A   Clear
10:35 PM 29.5 °F 25.9 °F 26.4 °F 88% 30.17 in 10.0 mi South 3.5 mph - N/A   Clear
10:55 PM 29.3 °F - 27.0 °F 91% 30.17 in 10.0 mi Calm Calm - N/A   Clear